Eastsound, WA
on Wednesday, January 23, 2013

Wednesday
Previous Day Next Day
Daily Summary
 ActualAverage (KBLI)Record (KBLI)
Temperature
Mean Temperature °F 40°F  
Max Temperature 44°F 46°F 60°F (2005)
Min Temperature 37°F 33°F 9°F (1969)
Degree Days
Heating Degree Days 24 25  
Month to date heating degree days 598  
Cooling Degree Days 0 0  
Month to date cooling degree days 0  
Year to date cooling degree days 0  
Moisture
Dew Point 39°F   
Average Humidity 91    
Maximum Humidity 100    
Minimum Humidity 81    
Precipitation
Precipitation 0.03 in 0.15 in 2.42 in (1982)
Month to date precipitation 3.54  
Year to date precipitation 3.54  
Wind
Wind Speed 4 mph   
Max Wind Speed 15 mph   
Max Gust Speed 23 mph   
Visibility 8 miles   
Events Rain   

Key: T is trace of precipitation, MM is missing value
Source: NWS Daily Summary
Time(PST)TemperatureDew PointHumidity Pressure Visibility Wind DirectionWind SpeedGust SpeedPrecipitationEvents Conditions
12:15 AM 37.4°F 35.6°F 93% 29.91 in 7.0 miles Calm Calm - N/A   Clear
12:35 AM 37.4°F 35.6°F 93% 29.92 in 9.0 miles Calm Calm - N/A   Clear
12:55 AM 37.4°F 35.6°F 93% 29.92 in 6.0 miles Calm Calm - N/A   Clear
1:15 AM 37.4°F 35.6°F 93% 29.91 in 8.0 miles Calm Calm - N/A   Partly Cloudy
1:35 AM 39.2°F 35.6°F 87% 29.90 in 10.0 miles North 3.5 mph - N/A   Scattered Clouds
2:15 AM 39.2°F 35.6°F 87% 29.92 in 10.0 miles Calm Calm - N/A   Mostly Cloudy
2:35 AM 39.2°F 35.6°F 87% 29.92 in 10.0 miles Calm Calm - N/A   Mostly Cloudy
3:15 AM 37.4°F 35.6°F 93% 29.92 in 10.0 miles Calm Calm - N/A   Partly Cloudy
3:35 AM 37.4°F 35.6°F 93% 29.92 in 10.0 miles Calm Calm - N/A   Clear
3:55 AM 37.4°F 35.6°F 93% 29.91 in 10.0 miles Calm Calm - N/A   Clear
4:15 AM 37.4°F 35.6°F 93% 29.92 in 10.0 miles Calm Calm - N/A   Clear
4:35 AM 37.4°F 35.6°F 93% 29.91 in 10.0 miles Calm Calm - N/A   Clear
4:55 AM 37.4°F 35.6°F 93% 29.90 in 10.0 miles Calm Calm - N/A   Clear
5:15 AM 37.4°F 35.6°F 93% 29.89 in 10.0 miles Calm Calm - N/A   Scattered Clouds
5:35 AM 39.2°F 37.4°F 93% 29.87 in 10.0 miles NNE 5.8 mph - N/A   Mostly Cloudy
5:55 AM 41.0°F 37.4°F 87% 29.86 in 10.0 miles NNE 8.1 mph - N/A   Mostly Cloudy
6:15 AM 41.0°F 35.6°F 81% 29.84 in 10.0 miles NNE 6.9 mph 16.1 mph N/A   Partly Cloudy
6:35 AM 41.0°F 37.4°F 87% 29.85 in 10.0 miles NE 9.2 mph - N/A   Clear
6:55 AM 39.2°F 35.6°F 87% 29.86 in 10.0 miles East 5.8 mph - N/A   Partly Cloudy
7:15 AM 39.2°F 35.6°F 87% 29.86 in 9.0 miles East 5.8 mph - N/A Rain Light Rain
7:35 AM 39.2°F 35.6°F 87% 29.85 in 10.0 miles ENE 6.9 mph - N/A Rain Light Rain
7:55 AM 39.2°F 35.6°F 87% 29.85 in 10.0 miles Calm Calm - N/A   Scattered Clouds
8:15 AM 39.2°F 33.8°F 81% 29.85 in 10.0 miles Calm Calm - N/A   Mostly Cloudy
8:55 AM 39.2°F 33.8°F 81% 29.85 in 7.0 miles Calm Calm - N/A Rain Light Rain
9:15 AM 39.2°F 35.6°F 87% 29.85 in 7.0 miles Calm Calm - N/A Rain Light Rain
9:35 AM 39.2°F 35.6°F 87% 29.85 in 5.0 miles Calm Calm - N/A Rain Light Rain
9:55 AM 39.2°F 37.4°F 93% 29.84 in 6.0 miles Calm Calm - N/A Rain Light Rain
10:15 AM 39.2°F 37.4°F 93% 29.83 in 6.0 miles Calm Calm - N/A Rain Light Rain
10:35 AM 39.2°F 37.4°F 93% 29.83 in 5.0 miles Calm Calm - N/A Rain Light Rain
10:55 AM 39.2°F 37.4°F 93% 29.82 in 6.0 miles Calm Calm - N/A Rain Light Rain
11:15 AM 39.2°F 39.2°F 100% 29.82 in 5.0 miles Calm Calm - N/A Rain Light Rain
11:55 AM 44.6°F 41.0°F 87% 29.81 in 9.0 miles SSW 6.9 mph - N/A Rain Light Rain
12:15 PM 44.6°F 41.0°F 87% 29.80 in 9.0 miles SSW 9.2 mph - N/A   Overcast
12:35 PM 44.6°F 41.0°F 87% 29.79 in 6.0 miles SSW 8.1 mph - N/A Rain Light Rain
12:55 PM 44.6°F 41.0°F 87% 29.79 in 5.0 miles SSW 12.7 mph - N/A   Overcast
1:35 PM 44.6°F 42.8°F 93% 29.79 in 6.0 miles SSW 11.5 mph 16.1 mph N/A Rain Light Rain
1:55 PM 44.6°F 42.8°F 93% 29.80 in 5.0 miles SSW 10.4 mph 19.6 mph N/A   Overcast
2:15 PM 44.6°F 42.8°F 93% 29.81 in 4.0 miles SW 4.6 mph - N/A Rain Rain
2:35 PM 42.8°F 41.0°F 93% 29.81 in 3.0 miles West 5.8 mph - N/A Rain Rain
2:55 PM 41.0°F 41.0°F 100% 29.82 in 3.0 miles Calm Calm - 0.01 in Rain Rain
3:15 PM 42.8°F 42.8°F 100% 29.83 in 2.5 miles South 5.8 mph - 0.02 in Rain Rain
3:35 PM 42.8°F 42.8°F 100% 29.83 in 3.0 miles South 5.8 mph - 0.02 in Rain Light Rain
4:15 PM 42.8°F 41.0°F 93% 29.84 in 3.0 miles SW 12.7 mph 16.1 mph N/A Rain Light Rain
4:35 PM 42.8°F 41.0°F 93% 29.85 in 3.0 miles South 10.4 mph - N/A Rain Light Rain
4:55 PM 42.8°F 41.0°F 93% 29.85 in 5.0 miles South 11.5 mph - N/A Rain Light Rain
5:15 PM 42.8°F 41.0°F 93% 29.86 in 9.0 miles SSW 9.2 mph - N/A   Mostly Cloudy
5:35 PM 42.8°F 41.0°F 93% 29.86 in 10.0 miles SSW 11.5 mph 17.3 mph N/A   Mostly Cloudy
5:55 PM 42.8°F 41.0°F 93% 29.87 in 10.0 miles South 15.0 mph 23.0 mph N/A   Scattered Clouds
6:15 PM 42.8°F 41.0°F 93% 29.88 in 10.0 miles South 12.7 mph 18.4 mph N/A   Scattered Clouds
6:35 PM 42.8°F 41.0°F 93% 29.88 in 10.0 miles South 10.4 mph 16.1 mph N/A   Scattered Clouds
6:55 PM 42.8°F 41.0°F 93% 29.90 in 10.0 miles SSW 13.8 mph - N/A   Partly Cloudy
7:15 PM 42.8°F 41.0°F 93% 29.91 in 10.0 miles South 11.5 mph - N/A   Partly Cloudy
7:35 PM 42.8°F 41.0°F 93% 29.92 in 9.0 miles SSW 10.4 mph - N/A Rain Light Rain
7:55 PM 42.8°F 41.0°F 93% 29.93 in 10.0 miles South 11.5 mph - N/A   Overcast
8:15 PM 42.8°F 41.0°F 93% 29.94 in 10.0 miles South 13.8 mph 17.3 mph N/A   Mostly Cloudy
8:35 PM 44.6°F 41.0°F 87% 29.96 in 10.0 miles SSW 8.1 mph - N/A   Mostly Cloudy
8:55 PM 44.6°F 41.0°F 87% 29.97 in 10.0 miles South 10.4 mph 16.1 mph N/A   Overcast
9:15 PM 44.6°F 41.0°F 87% 29.98 in 10.0 miles SSW 11.5 mph 16.1 mph N/A   Overcast
9:35 PM 44.6°F 41.0°F 87% 29.99 in 10.0 miles SSW 10.4 mph - N/A   Overcast
9:55 PM 44.6°F 41.0°F 87% 30.00 in 10.0 miles South 8.1 mph - N/A   Overcast
10:15 PM 42.8°F 41.0°F 93% 30.01 in 10.0 miles South 8.1 mph - N/A   Scattered Clouds
10:55 PM 41.0°F 39.2°F 93% 30.04 in 10.0 miles South 3.5 mph - N/A   Partly Cloudy
11:15 PM 41.0°F 37.4°F 87% 30.05 in 10.0 miles South 5.8 mph - N/A   Clear
11:35 PM 41.0°F 37.4°F 87% 30.06 in 10.0 miles SSW 9.2 mph - N/A   Partly Cloudy
11:55 PM 41.0°F 37.4°F 87% 30.08 in 10.0 miles South 9.2 mph - N/A   Partly Cloudy
Moon Phase
Jan. 23 Jan. 26 Feb. 03 Feb. 10 Feb. 17
Sunrise:07:51 AM (PST) Moon Rise:02:06 PM (PST)1/23
Sunset:04:55 PM (PST) Moon Set:05:11 AM (PST)1/23

Copyright © 2014 The Weather Underground, Inc.